| time (UTC) | temp F | wind direction | speed MPH | gust MPH | rain 1hr in | rain 24hr in | rain mn in | humidity % | barometer mb |
| 20260505075413 | 62 | 223 | 0.0 | 1.0 | 0.00 | 0.00 | 0.00 | 67 | 1009.3 |
| 20260505074913 | 62 | 177 | 0.0 | 1.0 | 0.00 | 0.00 | 0.00 | 67 | 1009.3 |
| 20260505074634 | 62 | 143 | 0.0 | 1.0 | 0.00 | 0.00 | 0.00 | 67 | 1009.3 |
| 20260505073915 | 62 | 202 | 0.0 | 1.0 | 0.00 | 0.00 | 0.00 | 66 | 1009.3 |
| 20260505073414 | 62 | 1 | 0.0 | 3.0 | 0.00 | 0.00 | 0.00 | 66 | 1009.2 |
| 20260505072915 | 62 | 307 | 0.0 | 3.0 | 0.00 | 0.00 | 0.00 | 66 | 1009.1 |
| 20260505072414 | 62 | 150 | 0.0 | 1.0 | 0.00 | 0.00 | 0.00 | 65 | 1009.0 |
| 20260505071914 | 63 | 194 | 0.0 | 1.0 | 0.00 | 0.00 | 0.00 | 65 | 1009.0 |
| 20260505071413 | 63 | 72 | 0.0 | 2.0 | 0.00 | 0.00 | 0.00 | 64 | 1009.0 |
| 20260505070913 | 63 | 4 | 0.0 | 2.0 | 0.00 | 0.00 | 0.00 | 64 | 1009.0 |
| 20260505070414 | 63 | 217 | 0.0 | 2.0 | 0.00 | 0.00 | 0.00 | 63 | 1008.9 |
| 20260505065914 | 63 | 222 | 0.0 | 2.0 | 0.00 | 0.00 | 0.00 | 63 | 1008.9 |
| 20260505065413 | 63 | 19 | 0.0 | 2.0 | 0.00 | 0.00 | 0.00 | 63 | 1008.9 |
| 20260505065142 | 63 | 166 | 0.0 | 2.0 | 0.00 | 0.00 | 0.00 | 63 | 1008.9 |
| 20260505064414 | 63 | 218 | 0.0 | 2.0 | 0.00 | 0.00 | 0.00 | 63 | 1009.0 |
| 20260505063912 | 63 | 205 | 0.0 | 2.0 | 0.00 | 0.00 | 0.00 | 62 | 1008.9 |
| 20260505063411 | 63 | 109 | 0.0 | 2.0 | 0.00 | 0.00 | 0.00 | 62 | 1008.8 |
| 20260505062909 | 63 | 169 | 0.0 | 2.0 | 0.00 | 0.00 | 0.00 | 62 | 1008.9 |
| 20260505062408 | 63 | 226 | 0.0 | 2.0 | 0.00 | 0.00 | 0.00 | 61 | 1008.8 |
| 20260505061910 | 63 | 208 | 0.0 | 2.0 | 0.00 | 0.00 | 0.00 | 61 | 1008.8 |
| 20260505061405 | 63 | 228 | 0.0 | 2.0 | 0.00 | 0.00 | 0.00 | 61 | 1008.7 |
| 20260505061129 | 63 | 177 | 0.0 | 2.0 | 0.00 | 0.00 | 0.00 | 61 | 1008.8 |
| 20260505060405 | 63 | 248 | 0.0 | 2.0 | 0.00 | 0.00 | 0.00 | 60 | 1008.9 |
| 20260505060125 | 63 | 240 | 0.0 | 2.0 | 0.00 | 0.00 | 0.00 | 60 | 1009.0 |
| 20260505055620 | 63 | 152 | 0.0 | 1.0 | 0.00 | 0.00 | 0.00 | 60 | 1008.9 |
| 20260505055114 | 63 | 217 | 0.0 | 2.0 | 0.00 | 0.00 | 0.00 | 59 | 1008.9 |
| 20260505054954 | 63 | 173 | 0.0 | 1.0 | 0.00 | 0.00 | 0.00 | 59 | 1009.0 |
| 20260505053854 | 64 | 207 | 0.0 | 2.0 | 0.00 | 0.00 | 0.00 | 58 | 1009.0 |
| 20260505053352 | 64 | 180 | 0.0 | 2.0 | 0.00 | 0.00 | 0.00 | 58 | 1008.9 |
| 20260505052850 | 64 | 224 | 0.0 | 2.0 | 0.00 | 0.00 | 0.00 | 57 | 1008.9 |
| 20260505052353 | 64 | 167 | 0.0 | 1.0 | 0.00 | 0.00 | 0.00 | 57 | 1008.9 |
| 20260505051847 | 64 | 159 | 0.0 | 1.0 | 0.00 | 0.00 | 0.00 | 56 | 1008.9 |
| 20260505051341 | 65 | 157 | 0.0 | 1.0 | 0.00 | 0.00 | 0.00 | 56 | 1009.0 |
| 20260505050834 | 65 | 162 | 0.0 | 1.0 | 0.00 | 0.00 | 0.00 | 56 | 1008.9 |
| 20260505050328 | 65 | 176 | 0.0 | 0.0 | 0.00 | 0.00 | 0.00 | 55 | 1008.9 |
| 20260505041739 | 66 | 213 | 0.0 | 1.0 | 0.00 | 0.00 | 0.00 | 52 | 1008.5 |
| 20260505041241 | 66 | 165 | 0.0 | 1.0 | 0.00 | 0.00 | 0.00 | 52 | 1008.4 |
| 20260505040737 | 66 | 150 | 0.0 | 1.0 | 0.00 | 0.00 | 0.00 | 53 | 1008.4 |
| 20260505040237 | 66 | 150 | 0.0 | 1.0 | 0.00 | 0.00 | 0.00 | 52 | 1008.3 |
| 20260505040000 | 66 | 36 | 0.0 | 1.0 | 0.00 | 0.00 | 0.00 | 53 | 1008.3 |
| 20260505035233 | 65 | 217 | 0.0 | 1.0 | 0.00 | 0.00 | 0.00 | 53 | 1008.3 |
| 20260505034732 | 65 | 217 | 0.0 | 1.0 | 0.00 | 0.00 | 0.00 | 53 | 1008.3 |
| 20260505034233 | 66 | 216 | 0.0 | 1.0 | 0.00 | 0.00 | 0.00 | 53 | 1008.3 |
| 20260505033729 | 66 | 216 | 0.0 | 1.0 | 0.00 | 0.00 | 0.00 | 53 | 1008.4 |
| 20260505033504 | 66 | 155 | 0.0 | 0.0 | 0.00 | 0.00 | 0.00 | 53 | 1008.4 |
| 20260505033218 | 66 | 154 | 0.0 | 0.0 | 0.00 | 0.00 | 0.00 | 53 | 1008.4 |
| 20260505032453 | 66 | 155 | 0.0 | 0.0 | 0.00 | 0.00 | 0.00 | 53 | 1008.3 |
| 20260505031727 | 66 | 155 | 0.0 | 0.0 | 0.00 | 0.00 | 0.00 | 52 | 1008.3 |
| 20260505031448 | 66 | 155 | 0.0 | 0.0 | 0.00 | 0.00 | 0.00 | 52 | 1008.3 |
| 20260505030725 | 66 | 155 | 0.0 | 0.0 | 0.00 | 0.00 | 0.00 | 52 | 1008.4 |
| 20260505030226 | 66 | 154 | 0.0 | 0.0 | 0.00 | 0.00 | 0.00 | 52 | 1008.3 |
| 20260505025947 | 67 | 155 | 0.0 | 0.0 | 0.00 | 0.00 | 0.00 | 52 | 1008.4 |
| 20260505025704 | 67 | 155 | 0.0 | 0.0 | 0.00 | 0.00 | 0.00 | 51 | 1008.4 |
| 20260505025315 | 67 | 154 | 0.0 | 0.0 | 0.00 | 0.00 | 0.00 | 51 | 1008.4 |
| 20260505024452 | 67 | 155 | 0.0 | 0.0 | 0.00 | 0.00 | 0.00 | 51 | 1008.4 |
| 20260505024202 | 67 | 173 | 0.0 | 0.0 | 0.00 | 0.00 | 0.00 | 51 | 1008.4 |
| 20260505023227 | 67 | 173 | 0.0 | 1.0 | 0.00 | 0.00 | 0.00 | 51 | 1008.4 |
| 20260505022727 | 67 | 173 | 0.0 | 1.0 | 0.00 | 0.00 | 0.00 | 50 | 1008.4 |
| 20260505022226 | 67 | 278 | 0.0 | 1.0 | 0.00 | 0.00 | 0.00 | 50 | 1008.4 |
| 20260505021725 | 67 | 278 | 0.0 | 1.0 | 0.00 | 0.00 | 0.00 | 50 | 1008.3 |
| 20260505021226 | 68 | 278 | 0.0 | 1.0 | 0.00 | 0.00 | 0.00 | 50 | 1008.3 |
| 20260505020725 | 68 | 278 | 0.0 | 1.0 | 0.00 | 0.00 | 0.00 | 50 | 1008.2 |
| 20260505020226 | 68 | 278 | 0.0 | 1.0 | 0.00 | 0.00 | 0.00 | 49 | 1008.3 |
| 20260505020204 | 68 | 279 | 0.0 | 1.0 | 0.00 | 0.00 | 0.00 | 49 | 1008.3 |
| 20260505015225 | 68 | 279 | 0.0 | 0.0 | 0.00 | 0.00 | 0.00 | 48 | 1008.3 |
| 20260505014717 | 69 | 279 | 0.0 | 0.0 | 0.00 | 0.00 | 0.00 | 48 | 1008.2 |
| 20260505014212 | 69 | 279 | 0.0 | 1.0 | 0.00 | 0.00 | 0.00 | 48 | 1008.2 |
| 20260505013706 | 69 | 279 | 0.0 | 1.0 | 0.00 | 0.00 | 0.00 | 48 | 1008.1 |
| 20260505013200 | 69 | 244 | 0.0 | 1.0 | 0.00 | 0.00 | 0.00 | 47 | 1008.0 |
| 20260505012654 | 69 | 12 | 0.0 | 1.0 | 0.00 | 0.00 | 0.00 | 47 | 1007.9 |
| 20260505012148 | 69 | 12 | 0.0 | 1.0 | 0.00 | 0.00 | 0.00 | 47 | 1007.8 |
| 20260505011642 | 69 | 12 | 0.0 | 1.0 | 0.00 | 0.00 | 0.00 | 47 | 1007.8 |
| 20260505011136 | 70 | 12 | 0.0 | 1.0 | 0.00 | 0.00 | 0.00 | 46 | 1007.7 |
| 20260505010900 | 70 | 13 | 0.0 | 1.0 | 0.00 | 0.00 | 0.00 | 46 | 1007.7 |
| 20260505010124 | 70 | 13 | 0.0 | 0.0 | 0.00 | 0.00 | 0.00 | 46 | 1007.7 |
| 20260505005618 | 71 | 22 | 0.0 | 0.0 | 0.00 | 0.00 | 0.00 | 45 | 1007.7 |
| 20260505005112 | 71 | 23 | 0.0 | 0.0 | 0.00 | 0.00 | 0.00 | 45 | 1007.6 |
| 20260505004606 | 71 | 23 | 0.0 | 0.0 | 0.00 | 0.00 | 0.00 | 44 | 1007.5 |
| 20260505004334 | 72 | 23 | 0.0 | 1.0 | 0.00 | 0.00 | 0.00 | 44 | 1007.5 |
| 20260505003554 | 72 | 22 | 0.0 | 1.0 | 0.00 | 0.00 | 0.00 | 43 | 1007.6 |
| 20260505003048 | 72 | 22 | 0.0 | 1.0 | 0.00 | 0.00 | 0.00 | 43 | 1007.6 |
| 20260505002542 | 72 | 226 | 0.0 | 1.0 | 0.00 | 0.00 | 0.00 | 44 | 1007.7 |
| 20260505002036 | 72 | 229 | 0.0 | 1.0 | 0.00 | 0.00 | 0.00 | 43 | 1007.7 |
| 20260505001757 | 72 | 37 | 0.0 | 0.0 | 0.00 | 0.00 | 0.00 | 43 | 1007.6 |
| 20260505001025 | 72 | 37 | 0.0 | 1.0 | 0.00 | 0.00 | 0.00 | 43 | 1007.7 |
| 20260505000736 | 72 | 89 | 0.0 | 1.0 | 0.00 | 0.00 | 0.00 | 42 | 1007.8 |
| 20260505000012 | 72 | 355 | 0.0 | 1.0 | 0.00 | 0.00 | 0.00 | 42 | 1007.7 |
| 20260504235506 | 72 | 352 | 0.0 | 1.0 | 0.00 | 0.00 | 0.00 | 41 | 1007.7 |
| 20260504235000 | 72 | 352 | 0.0 | 1.0 | 0.00 | 0.00 | 0.00 | 41 | 1007.7 |
| 20260504234453 | 73 | 27 | 0.0 | 7.0 | 0.00 | 0.00 | 0.00 | 40 | 1007.7 |
| 20260504234206 | 73 | 225 | 0.0 | 7.0 | 0.00 | 0.00 | 0.00 | 39 | 1007.7 |
| 20260504233442 | 73 | 119 | 0.0 | 2.0 | 0.00 | 0.00 | 0.00 | 39 | 1007.6 |
| 20260504233202 | 73 | 163 | 0.0 | 0.0 | 0.00 | 0.00 | 0.00 | 39 | 1007.6 |
| 20260504232430 | 74 | 163 | 0.0 | 2.0 | 0.00 | 0.00 | 0.00 | 38 | 1007.5 |
| 20260504231924 | 74 | 151 | 0.0 | 2.0 | 0.00 | 0.00 | 0.00 | 37 | 1007.5 |
| 20260504231417 | 74 | 39 | 0.0 | 1.0 | 0.00 | 0.00 | 0.00 | 36 | 1007.4 |
| 20260504230912 | 75 | 232 | 0.0 | 3.0 | 0.00 | 0.00 | 0.00 | 36 | 1007.4 |
| 20260504230407 | 75 | 71 | 0.0 | 3.0 | 0.00 | 0.00 | 0.00 | 36 | 1007.4 |
| 20260504225900 | 76 | 141 | 0.0 | 4.0 | 0.00 | 0.00 | 0.00 | 36 | 1007.4 |
| 20260504225354 | 76 | 15 | 1.0 | 4.0 | 0.00 | 0.00 | 0.00 | 35 | 1007.5 |
| 20260504225114 | 76 | 136 | 0.0 | 3.0 | 0.00 | 0.00 | 0.00 | 35 | 1007.5 |
| 20260504224615 | 77 | 44 | 1.0 | 5.0 | 0.00 | 0.00 | 0.00 | 34 | 1007.6 |
| 20260504223836 | 77 | 66 | 1.0 | 5.0 | 0.00 | 0.00 | 0.00 | 34 | 1007.7 |
| 20260504223331 | 77 | 243 | 1.0 | 4.0 | 0.00 | 0.00 | 0.00 | 34 | 1007.6 |
| 20260504222824 | 78 | 203 | 1.0 | 4.0 | 0.00 | 0.00 | 0.00 | 33 | 1007.6 |
| 20260504222318 | 78 | 211 | 0.0 | 4.0 | 0.00 | 0.00 | 0.00 | 33 | 1007.6 |
| 20260504221812 | 79 | 274 | 0.0 | 4.0 | 0.00 | 0.00 | 0.00 | 33 | 1007.5 |
| 20260504221306 | 79 | 179 | 1.0 | 5.0 | 0.00 | 0.00 | 0.00 | 33 | 1007.4 |
| 20260504220800 | 79 | 249 | 1.0 | 5.0 | 0.00 | 0.00 | 0.00 | 32 | 1007.4 |
| 20260504220254 | 79 | 96 | 1.0 | 2.0 | 0.00 | 0.00 | 0.00 | 32 | 1007.5 |
| 20260504215748 | 80 | 212 | 0.0 | 2.0 | 0.00 | 0.00 | 0.00 | 32 | 1007.4 |
| 20260504215242 | 80 | 186 | 0.0 | 4.0 | 0.00 | 0.00 | 0.00 | 31 | 1007.4 |
| 20260504215001 | 80 | 151 | 1.0 | 4.0 | 0.00 | 0.00 | 0.00 | 31 | 1007.4 |
| 20260504214230 | 81 | 301 | 1.0 | 6.0 | 0.00 | 0.00 | 0.00 | 31 | 1007.4 |
| 20260504213947 | 81 | 162 | 1.0 | 6.0 | 0.00 | 0.00 | 0.00 | 30 | 1007.4 |
| 20260504213218 | 82 | 223 | 1.0 | 5.0 | 0.00 | 0.00 | 0.00 | 30 | 1007.3 |
| 20260504212712 | 82 | 44 | 1.0 | 5.0 | 0.00 | 0.00 | 0.00 | 30 | 1007.3 |
| 20260504212206 | 82 | 215 | 1.0 | 3.0 | 0.00 | 0.00 | 0.00 | 30 | 1007.4 |
| 20260504211700 | 82 | 165 | 1.0 | 4.0 | 0.00 | 0.00 | 0.00 | 30 | 1007.4 |
| 20260504211419 | 83 | 15 | 1.0 | 4.0 | 0.00 | 0.00 | 0.00 | 29 | 1007.4 |
| 20260504210647 | 83 | 158 | 0.0 | 4.0 | 0.00 | 0.00 | 0.00 | 31 | 1007.4 |
| 20260504210143 | 82 | 153 | 0.0 | 4.0 | 0.00 | 0.00 | 0.00 | 30 | 1007.3 |
| 20260504205636 | 82 | 146 | 0.0 | 2.0 | 0.00 | 0.00 | 0.00 | 30 | 1007.4 |
| 20260504205131 | 82 | 151 | 1.0 | 2.0 | 0.00 | 0.00 | 0.00 | 30 | 1007.4 |
| 20260504204624 | 82 | 214 | 1.0 | 2.0 | 0.00 | 0.00 | 0.00 | 29 | 1007.4 |
| 20260504204118 | 83 | 181 | 1.0 | 6.0 | 0.00 | 0.00 | 0.00 | 31 | 1007.5 |
| 20260504203612 | 82 | 207 | 1.0 | 6.0 | 0.00 | 0.00 | 0.00 | 30 | 1007.5 |
| 20260504203106 | 82 | 47 | 1.0 | 4.0 | 0.00 | 0.00 | 0.00 | 31 | 1007.5 |
| 20260504202600 | 82 | 53 | 1.0 | 9.0 | 0.00 | 0.00 | 0.00 | 30 | 1007.6 |
| 20260504202054 | 81 | 221 | 1.0 | 9.0 | 0.00 | 0.00 | 0.00 | 30 | 1007.7 |
| 20260504201548 | 81 | 183 | 1.0 | 5.0 | 0.00 | 0.00 | 0.00 | 31 | 1007.7 |
| 20260504201042 | 82 | 59 | 1.0 | 5.0 | 0.00 | 0.00 | 0.00 | 29 | 1007.9 |
| 20260504200536 | 82 | 257 | 1.0 | 4.0 | 0.00 | 0.00 | 0.00 | 30 | 1007.9 |
| 20260504200031 | 82 | 140 | 1.0 | 3.0 | 0.00 | 0.00 | 0.00 | 30 | 1007.9 |
| 20260504195524 | 82 | 159 | 1.0 | 3.0 | 0.00 | 0.00 | 0.00 | 31 | 1007.9 |
| 20260504195018 | 82 | 170 | 1.0 | 6.0 | 0.00 | 0.00 | 0.00 | 30 | 1007.9 |
| 20260504194512 | 81 | 219 | 0.0 | 6.0 | 0.00 | 0.00 | 0.00 | 30 | 1008.0 |
| 20260504194006 | 81 | 221 | 1.0 | 3.0 | 0.00 | 0.00 | 0.00 | 31 | 1008.1 |
| 20260504193459 | 80 | 169 | 1.0 | 4.0 | 0.00 | 0.00 | 0.00 | 32 | 1008.1 |
| 20260504192954 | 80 | 222 | 1.0 | 4.0 | 0.00 | 0.00 | 0.00 | 31 | 1008.3 |
| 20260504192448 | 80 | 340 | 1.0 | 3.0 | 0.00 | 0.00 | 0.00 | 33 | 1008.5 |
| 20260504191948 | 80 | 101 | 1.0 | 6.0 | 0.00 | 0.00 | 0.00 | 32 | 1008.6 |
| 20260504191449 | 79 | 120 | 1.0 | 6.0 | 0.00 | 0.00 | 0.00 | 32 | 1008.5 |
| 20260504191210 | 79 | 160 | 1.0 | 4.0 | 0.00 | 0.00 | 0.00 | 32 | 1008.5 |
| 20260504190448 | 78 | 232 | 1.0 | 4.0 | 0.00 | 0.00 | 0.00 | 31 | 1008.8 |
| 20260504185947 | 78 | 110 | 1.0 | 4.0 | 0.00 | 0.00 | 0.00 | 31 | 1008.8 |
| 20260504185444 | 78 | 161 | 1.0 | 4.0 | 0.00 | 0.00 | 0.00 | 31 | 1008.8 |
| 20260504185206 | 78 | 203 | 2.0 | 7.0 | 0.00 | 0.00 | 0.00 | 32 | 1009.0 |
| 20260504184445 | 77 | 144 | 1.0 | 7.0 | 0.00 | 0.00 | 0.00 | 32 | 1009.1 |
| 20260504183942 | 77 | 167 | 1.0 | 4.0 | 0.00 | 0.00 | 0.00 | 33 | 1009.0 |
| 20260504183440 | 76 | 56 | 1.0 | 3.0 | 0.00 | 0.00 | 0.00 | 32 | 1009.1 |
| 20260504182941 | 76 | 58 | 1.0 | 10.0 | 0.00 | 0.00 | 0.00 | 31 | 1009.1 |
| 20260504182441 | 76 | 234 | 1.0 | 10.0 | 0.00 | 0.00 | 0.00 | 31 | 1009.1 |
| 20260504181939 | 76 | 85 | 1.0 | 5.0 | 0.00 | 0.00 | 0.00 | 30 | 1009.1 |
| 20260504181439 | 76 | 118 | 1.0 | 7.0 | 0.00 | 0.00 | 0.00 | 30 | 1009.2 |
| 20260504180938 | 76 | 150 | 1.0 | 7.0 | 0.00 | 0.00 | 0.00 | 31 | 1009.3 |
| 20260504180706 | 76 | 224 | 1.0 | 3.0 | 0.00 | 0.00 | 0.00 | 33 | 1009.4 |
| 20260504175935 | 75 | 34 | 1.0 | 5.0 | 0.00 | 0.00 | 0.00 | 35 | 1009.4 |
| 20260504175657 | 75 | 200 | 2.0 | 5.0 | 0.00 | 0.00 | 0.00 | 32 | 1009.4 |
| 20260504174935 | 75 | 180 | 1.0 | 5.0 | 0.00 | 0.00 | 0.00 | 33 | 1009.5 |
| 20260504174435 | 75 | 225 | 1.0 | 5.0 | 0.00 | 0.00 | 0.00 | 32 | 1009.4 |
| 20260504173936 | 75 | 211 | 1.0 | 5.0 | 0.00 | 0.00 | 0.00 | 31 | 1009.5 |
| 20260504173926 | 76 | 224 | 1.0 | 5.0 | 0.00 | 0.00 | 0.00 | 32 | 1009.7 |
| 20260504172935 | 76 | 233 | 1.0 | 6.0 | 0.00 | 0.00 | 0.00 | 32 | 1009.7 |
| 20260504172658 | 77 | 122 | 1.0 | 6.0 | 0.00 | 0.00 | 0.00 | 34 | 1009.7 |
| 20260504172427 | 77 | 60 | 1.0 | 6.0 | 0.00 | 0.00 | 0.00 | 32 | 1009.7 |
| 20260504171431 | 76 | 322 | 2.0 | 7.0 | 0.00 | 0.00 | 0.00 | 33 | 1009.9 |
| 20260504171147 | 76 | 37 | 1.0 | 7.0 | 0.00 | 0.00 | 0.00 | 32 | 1009.9 |
| 20260504170431 | 76 | 51 | 2.0 | 5.0 | 0.00 | 0.00 | 0.00 | 33 | 1010.0 |
| 20260504160426 | 72 | 142 | 1.0 | 4.0 | 0.00 | 0.00 | 0.00 | 35 | 1010.5 |
| 20260504150853 | 67 | 41 | 0.0 | 4.0 | 0.00 | 0.00 | 0.00 | 41 | 1011.0 |
| 20260504150347 | 67 | 198 | 0.0 | 3.0 | 0.00 | 0.00 | 0.00 | 43 | 1011.0 |
| 20260504140741 | 62 | 5 | 0.0 | 3.0 | 0.00 | 0.00 | 0.00 | 49 | 1011.3 |
| 20260504140235 | 62 | 105 | 1.0 | 6.0 | 0.00 | 0.00 | 0.00 | 51 | 1011.4 |
| 20260504130629 | 58 | 217 | 1.0 | 5.0 | 0.00 | 0.00 | 0.00 | 56 | 1011.7 |
| 20260504130123 | 57 | 123 | 0.0 | 4.0 | 0.00 | 0.00 | 0.00 | 57 | 1011.8 |
| 20260504110405 | 50 | 213 | 0.0 | 0.0 | 0.00 | 0.00 | 0.00 | 68 | 1012.0 |
| 20260504100335 | 51 | 213 | 0.0 | 0.0 | 0.00 | 0.00 | 0.00 | 63 | 1011.9 |
| 20260504081748 | 53 | 213 | 0.0 | 0.0 | 0.00 | 0.00 | 0.00 | 58 | 1012.3 |
| 20260504081506 | 53 | 213 | 0.0 | 0.0 | 0.00 | 0.00 | 0.00 | 56 | 1012.3 |
| 20260504080749 | 53 | 213 | 0.0 | 0.0 | 0.00 | 0.00 | 0.00 | 56 | 1012.2 |
| 20260504080249 | 53 | 213 | 0.0 | 0.0 | 0.00 | 0.00 | 0.00 | 56 | 1012.2 |